Time,TemperatureF,DewpointF,PressureIn,WindDirection,WindDirectionDegrees,WindSpeedMPH,WindSpeedGustMPH,Humidity,HourlyPrecipIn,Conditions,Clouds,dailyrainin,SolarRadiationWatts/m^2,SoftwareType,DateUTC
2013-02-21 00:21:00,66.0,59.0,-100.00,NE,42,7.0,27.0,79,0.00,,,3.82,0.000000,,2013-02-21 10:21:00,
2013-02-21 00:31:00,66.0,59.0,-100.00,NE,42,7.0,27.0,79,0.00,,,3.82,0.000000,,2013-02-21 10:31:00,
2013-02-21 00:41:00,66.0,59.0,-100.00,NE,42,7.0,27.0,79,0.00,,,3.82,0.000000,,2013-02-21 10:41:00,
2013-02-21 00:51:00,66.0,59.0,-100.00,NE,42,7.0,27.0,79,0.00,,,3.82,0.000000,,2013-02-21 10:51:00,
2013-02-21 01:21:00,64.0,58.0,-100.00,NE,36,10.0,24.0,81,0.00,,,3.76,0.000000,,2013-02-21 11:21:00,
2013-02-21 01:31:00,64.0,58.0,-100.00,NE,36,10.0,24.0,81,0.00,,,3.76,0.000000,,2013-02-21 11:31:00,
2013-02-21 01:41:00,64.0,58.0,-100.00,NE,36,10.0,24.0,81,0.00,,,3.76,0.000000,,2013-02-21 11:41:00,
2013-02-21 01:51:00,64.0,58.0,-100.00,NE,36,10.0,24.0,81,0.00,,,3.76,0.000000,,2013-02-21 11:51:00,
2013-02-21 02:21:00,64.0,59.0,-100.00,NNE,16,5.0,19.0,85,0.00,,,3.58,0.000000,,2013-02-21 12:21:00,
2013-02-21 02:32:00,64.0,59.0,-100.00,NNE,16,5.0,19.0,85,0.00,,,3.58,0.000000,,2013-02-21 12:32:00,
2013-02-21 02:42:00,64.0,59.0,-100.00,NNE,16,5.0,19.0,85,0.00,,,3.58,0.000000,,2013-02-21 12:42:00,
2013-02-21 02:52:00,64.0,59.0,-100.00,NNE,16,5.0,19.0,85,0.00,,,3.58,0.000000,,2013-02-21 12:52:00,
2013-02-21 03:22:00,63.0,60.0,-100.00,East,99,4.0,21.0,90,0.00,,,3.46,0.000000,,2013-02-21 13:22:00,
2013-02-21 03:32:00,63.0,60.0,-100.00,East,99,4.0,21.0,90,0.00,,,3.46,0.000000,,2013-02-21 13:32:00,
2013-02-21 03:41:00,63.0,60.0,-100.00,East,99,4.0,21.0,90,0.00,,,3.46,0.000000,,2013-02-21 13:41:00,
2013-02-21 03:51:00,63.0,60.0,-100.00,East,99,4.0,21.0,90,0.00,,,3.46,0.000000,,2013-02-21 13:51:00,
2013-02-21 04:21:00,63.0,61.0,-100.00,ENE,71,5.0,14.0,93,0.00,,,3.33,0.000000,,2013-02-21 14:21:00,
2013-02-21 04:32:00,63.0,61.0,-100.00,ENE,71,5.0,14.0,93,0.00,,,3.33,0.000000,,2013-02-21 14:32:00,
2013-02-21 04:41:00,63.0,61.0,-100.00,ENE,71,5.0,14.0,93,0.00,,,3.33,0.000000,,2013-02-21 14:41:00,
2013-02-21 04:52:00,63.0,61.0,-100.00,ENE,71,5.0,14.0,93,0.00,,,3.33,0.000000,,2013-02-21 14:52:00,
2013-02-21 05:21:00,62.0,61.0,-100.00,East,90,7.0,17.0,98,0.04,,,3.20,0.000000,,2013-02-21 15:21:00,
2013-02-21 05:31:00,62.0,61.0,-100.00,East,90,7.0,17.0,98,0.04,,,3.20,0.000000,,2013-02-21 15:31:00,
2013-02-21 05:42:00,62.0,61.0,-100.00,East,90,7.0,17.0,98,0.04,,,3.20,0.000000,,2013-02-21 15:42:00,
2013-02-21 05:51:00,62.0,61.0,-100.00,East,90,7.0,17.0,98,0.04,,,3.20,0.000000,,2013-02-21 15:51:00,
2013-02-21 06:21:00,62.0,62.0,-100.00,ESE,116,4.0,15.0,99,0.06,,,2.80,0.000000,,2013-02-21 16:21:00,
2013-02-21 06:31:00,62.0,62.0,-100.00,ESE,116,4.0,15.0,99,0.06,,,2.80,0.000000,,2013-02-21 16:31:00,
2013-02-21 06:42:00,62.0,62.0,-100.00,ESE,116,4.0,15.0,99,0.06,,,2.80,0.000000,,2013-02-21 16:42:00,
2013-02-21 06:51:00,62.0,62.0,-100.00,ESE,116,4.0,15.0,99,0.06,,,2.80,0.000000,,2013-02-21 16:51:00,
2013-02-21 07:21:00,64.0,64.0,-100.00,East,80,9.0,21.0,100,0.37,,,2.97,0.000000,,2013-02-21 17:21:00,
2013-02-21 07:32:00,64.0,64.0,-100.00,East,80,9.0,21.0,100,0.37,,,2.97,0.000000,,2013-02-21 17:32:00,
2013-02-21 07:42:00,64.0,64.0,-100.00,East,80,9.0,21.0,100,0.37,,,2.97,0.000000,,2013-02-21 17:42:00,
2013-02-21 07:52:00,64.0,64.0,-100.00,East,80,9.0,21.0,100,0.37,,,2.97,0.000000,,2013-02-21 17:52:00,
2013-02-21 08:22:00,65.0,64.0,-100.00,ENE,59,8.0,25.0,95,0.28,,,2.82,36.000000,,2013-02-21 18:22:00,
2013-02-21 08:31:00,65.0,64.0,-100.00,ENE,59,8.0,25.0,95,0.28,,,2.82,36.000000,,2013-02-21 18:31:00,
2013-02-21 08:42:00,65.0,64.0,-100.00,ENE,59,8.0,25.0,95,0.28,,,2.82,36.000000,,2013-02-21 18:42:00,
2013-02-21 08:51:00,65.0,64.0,-100.00,ENE,59,8.0,25.0,95,0.28,,,2.82,36.000000,,2013-02-21 18:51:00,
2013-02-21 09:21:00,64.0,64.0,-100.00,East,85,5.0,15.0,100,0.20,,,2.72,88.000000,,2013-02-21 19:21:00,
2013-02-21 09:31:00,64.0,64.0,-100.00,East,85,5.0,15.0,100,0.20,,,2.72,88.000000,,2013-02-21 19:31:00,
2013-02-21 09:41:00,64.0,64.0,-100.00,East,85,5.0,15.0,100,0.20,,,2.72,88.000000,,2013-02-21 19:41:00,
2013-02-21 09:51:00,64.0,64.0,-100.00,East,85,5.0,15.0,100,0.20,,,2.72,88.000000,,2013-02-21 19:51:00,
2013-02-21 10:21:00,66.0,65.0,-100.00,SSE,150,14.0,31.0,97,0.18,,,2.45,165.000000,,2013-02-21 20:21:00,
2013-02-21 10:31:00,66.0,65.0,-100.00,SSE,150,14.0,31.0,97,0.18,,,2.45,165.000000,,2013-02-21 20:31:00,
2013-02-21 10:41:00,66.0,65.0,-100.00,SSE,150,14.0,31.0,97,0.18,,,2.45,165.000000,,2013-02-21 20:41:00,
2013-02-21 10:52:00,66.0,65.0,-100.00,SSE,150,14.0,31.0,97,0.18,,,2.45,165.000000,,2013-02-21 20:52:00,
2013-02-21 11:21:00,66.0,66.0,-100.00,East,82,11.0,24.0,100,0.58,,,2.43,234.000000,,2013-02-21 21:21:00,
2013-02-21 11:31:00,66.0,66.0,-100.00,East,82,11.0,24.0,100,0.58,,,2.43,234.000000,,2013-02-21 21:31:00,
2013-02-21 11:42:00,66.0,66.0,-100.00,East,82,11.0,24.0,100,0.58,,,2.43,234.000000,,2013-02-21 21:42:00,
2013-02-21 11:51:00,66.0,66.0,-100.00,East,82,11.0,24.0,100,0.58,,,2.43,234.000000,,2013-02-21 21:51:00,
2013-02-21 12:21:00,67.0,66.0,-100.00,ESE,123,6.0,19.0,97,0.30,,,2.47,266.000000,,2013-02-21 22:21:00,
2013-02-21 12:31:00,67.0,66.0,-100.00,ESE,123,6.0,19.0,97,0.30,,,2.47,266.000000,,2013-02-21 22:31:00,
2013-02-21 12:41:00,67.0,66.0,-100.00,ESE,123,6.0,19.0,97,0.30,,,2.47,266.000000,,2013-02-21 22:41:00,
2013-02-21 12:52:00,67.0,66.0,-100.00,ESE,123,6.0,19.0,97,0.30,,,2.47,266.000000,,2013-02-21 22:52:00,
2013-02-21 13:21:00,67.0,66.0,-100.00,NW,308,6.0,17.0,96,0.16,,,2.40,216.000000,,2013-02-21 23:21:00,
2013-02-21 13:31:00,67.0,66.0,-100.00,NW,308,6.0,17.0,96,0.16,,,2.40,216.000000,,2013-02-21 23:31:00,
2013-02-21 13:41:00,67.0,66.0,-100.00,NW,308,6.0,17.0,96,0.16,,,2.40,216.000000,,2013-02-21 23:41:00,
2013-02-21 13:52:00,67.0,66.0,-100.00,NW,308,6.0,17.0,96,0.16,,,2.40,216.000000,,2013-02-21 23:52:00,
2013-02-21 14:21:00,67.0,66.0,-100.00,East,84,9.0,22.0,97,0.60,,,2.79,210.000000,,2013-02-22 00:21:00,
2013-02-21 14:31:00,67.0,66.0,-100.00,East,84,9.0,22.0,97,0.60,,,2.79,210.000000,,2013-02-22 00:31:00,
2013-02-21 14:41:00,67.0,66.0,-100.00,East,84,9.0,22.0,97,0.60,,,2.79,210.000000,,2013-02-22 00:41:00,
2013-02-21 14:51:00,67.0,66.0,-100.00,East,84,9.0,22.0,97,0.60,,,2.79,210.000000,,2013-02-22 00:51:00,
2013-02-21 15:21:00,65.0,64.0,-100.00,WNW,302,4.0,21.0,98,0.10,,,-99.99,214.000000,,2013-02-22 01:21:00,
2013-02-21 15:32:00,65.0,64.0,-100.00,WNW,302,4.0,21.0,98,0.10,,,-99.99,214.000000,,2013-02-22 01:32:00,
2013-02-21 15:42:00,65.0,64.0,-100.00,WNW,302,4.0,21.0,98,0.10,,,-99.99,214.000000,,2013-02-22 01:42:00,
2013-02-21 15:51:00,65.0,64.0,-100.00,WNW,302,4.0,21.0,98,0.10,,,-99.99,214.000000,,2013-02-22 01:51:00,
2013-02-21 16:21:00,66.0,65.0,-100.00,ENE,77,9.0,25.0,97,0.20,,,3.08,166.000000,,2013-02-22 02:21:00,
2013-02-21 16:31:00,66.0,65.0,-100.00,ENE,77,9.0,25.0,97,0.20,,,3.08,166.000000,,2013-02-22 02:31:00,
2013-02-21 16:42:00,66.0,65.0,-100.00,ENE,77,9.0,25.0,97,0.20,,,3.08,166.000000,,2013-02-22 02:42:00,
2013-02-21 16:52:00,66.0,65.0,-100.00,ENE,77,9.0,25.0,97,0.20,,,3.08,166.000000,,2013-02-22 02:52:00,
2013-02-21 17:21:00,66.0,65.0,-100.00,ENE,66,7.0,16.0,95,0.02,,,3.10,109.000000,,2013-02-22 03:21:00,
2013-02-21 17:31:00,66.0,65.0,-100.00,ENE,66,7.0,16.0,95,0.02,,,3.10,109.000000,,2013-02-22 03:31:00,
2013-02-21 17:41:00,66.0,65.0,-100.00,ENE,66,7.0,16.0,95,0.02,,,3.10,109.000000,,2013-02-22 03:41:00,
2013-02-21 17:51:00,66.0,65.0,-100.00,ENE,66,7.0,16.0,95,0.02,,,3.10,109.000000,,2013-02-22 03:51:00,
2013-02-21 18:11:00,64.0,63.0,-100.00,NE,50,8.0,22.0,95,0.03,,,3.13,43.000000,,2013-02-22 04:11:00,
2013-02-21 18:21:00,64.0,63.0,-100.00,NE,50,8.0,22.0,95,0.03,,,3.13,43.000000,,2013-02-22 04:21:00,
2013-02-21 18:32:00,64.0,63.0,-100.00,NE,50,8.0,22.0,95,0.03,,,3.13,43.000000,,2013-02-22 04:32:00,
2013-02-21 18:42:00,64.0,63.0,-100.00,NE,50,8.0,22.0,95,0.03,,,3.13,43.000000,,2013-02-22 04:42:00,
2013-02-21 18:51:00,64.0,63.0,-100.00,NE,50,8.0,22.0,95,0.03,,,3.13,43.000000,,2013-02-22 04:51:00,
2013-02-21 19:22:00,66.0,65.0,-100.00,NE,54,5.0,20.0,97,0.03,,,3.16,7.000000,,2013-02-22 05:22:00,
2013-02-21 19:32:00,66.0,65.0,-100.00,NE,54,5.0,20.0,97,0.03,,,3.16,7.000000,,2013-02-22 05:32:00,
2013-02-21 19:41:00,66.0,65.0,-100.00,NE,54,5.0,20.0,97,0.03,,,3.16,7.000000,,2013-02-22 05:41:00,
2013-02-21 19:52:00,66.0,65.0,-100.00,NE,54,5.0,20.0,97,0.03,,,3.16,7.000000,,2013-02-22 05:52:00,
2013-02-21 20:21:00,66.0,65.0,-100.00,ENE,74,10.0,25.0,97,0.04,,,3.20,0.000000,,2013-02-22 06:21:00,
2013-02-21 20:31:00,66.0,65.0,-100.00,ENE,74,10.0,25.0,97,0.04,,,3.20,0.000000,,2013-02-22 06:31:00,
2013-02-21 20:42:00,66.0,65.0,-100.00,ENE,74,10.0,25.0,97,0.04,,,3.20,0.000000,,2013-02-22 06:42:00,
2013-02-21 20:51:00,66.0,65.0,-100.00,ENE,74,10.0,25.0,97,0.04,,,3.20,0.000000,,2013-02-22 06:51:00,
2013-02-21 21:21:00,64.0,63.0,-100.00,ESE,105,4.0,28.0,98,0.07,,,3.26,0.000000,,2013-02-22 07:21:00,
2013-02-21 21:31:00,64.0,63.0,-100.00,ESE,105,4.0,28.0,98,0.07,,,3.26,0.000000,,2013-02-22 07:31:00,
2013-02-21 21:42:00,64.0,63.0,-100.00,ESE,105,4.0,28.0,98,0.07,,,3.26,0.000000,,2013-02-22 07:42:00,
2013-02-21 21:51:00,64.0,63.0,-100.00,ESE,105,4.0,28.0,98,0.07,,,3.26,0.000000,,2013-02-22 07:51:00,
2013-02-21 22:21:00,66.0,65.0,-100.00,NNE,33,5.0,17.0,97,0.03,,,3.29,0.000000,,2013-02-22 08:21:00,
2013-02-21 22:31:00,66.0,65.0,-100.00,NNE,33,5.0,17.0,97,0.03,,,3.29,0.000000,,2013-02-22 08:31:00,
2013-02-21 22:41:00,66.0,65.0,-100.00,NNE,33,5.0,17.0,97,0.03,,,3.29,0.000000,,2013-02-22 08:41:00,
2013-02-21 22:52:00,66.0,65.0,-100.00,NNE,33,5.0,17.0,97,0.03,,,3.29,0.000000,,2013-02-22 08:52:00,
2013-02-21 23:21:00,64.0,64.0,-100.00,NNE,19,4.0,17.0,100,0.17,,,3.46,0.000000,,2013-02-22 09:21:00,
2013-02-21 23:31:00,64.0,64.0,-100.00,NNE,19,4.0,17.0,100,0.17,,,3.46,0.000000,,2013-02-22 09:31:00,
2013-02-21 23:41:00,64.0,64.0,-100.00,NNE,19,4.0,17.0,100,0.17,,,3.46,0.000000,,2013-02-22 09:41:00,
2013-02-21 23:51:00,64.0,64.0,-100.00,NNE,19,4.0,17.0,100,0.17,,,3.46,0.000000,,2013-02-22 09:51:00,